Location: ??
(35.4627°N, 139.3695°E)
Time: 04:24:13
(UTC+00:00)

BREEZE-M DEB (TANK) - Pass Details

Date: 25 November 2020
Orbit: 311 x 15409 km, 49.5° (Epoch: 20 January)

Event Time Altitude Azimuth Distance (km) Brightness Sun altitude
Exits shadow 18:47:52 59° 336° (NNW) 1,609 4.3 -32.3°
Maximum altitude 18:47:57 59° 339° (NNW) 1,623 4.4 -32.3°
Drops below altitude 10° 19:08:45 10° 57° (ENE) 8,854 9.0 -28.1°
Sets 19:23:30 0° 63° (ENE) 12,952 10.1 -25.1°
